User: anonymous
Location: Deep South Regional Star Gaze
(30.9929°N, 90.9586°W)
Time: 15:44:30
(UTC-05:00)
Language:

MSX - Orbit

View from above orbital plane
View from above orbital plane
View from above satellite
View from above satellite

Ground track
Ground track

The orbit data is extracted from the following two-line orbital elements,

1 23851U 96024A   14105.83467931 0.00000100  00000-0  70536-4 0    01
2 23851  98.7876 154.6893 0010000 292.1163  67.8836 13.97972948    04
Epoch (UTC): 15 April 2014 20:01:56
Eccentricity: 0.0010000
inclination: 98.7876°
perigee height: 893 km
apogee height: 908 km
right ascension of ascending node: 154.6893°
argument of perigee: 292.1163°
revolutions per day: 13.97972948
mean anomaly at epoch: 67.8836°
orbit number at epoch: 0

The dashed part of the orbit path shows where the satellite is in the earth's shadow,  

DLR